Weather History for Redmond, OR

Change the Weather History Date:

Thursday, September 25, 2014

  Actual Average Record
Temperature  
Mean Temperature 54 °F 54 °F  
Max Temperature 63 °F 73 °F 95 °F (1952)
Min Temperature 44 °F 36 °F 21 °F (1970)
Degree Days  
Heating Degree Days 11 11  
Month to date heating degree days 135 192  
Since 1 July heating degree days 209 341  
Cooling Degree Days 0 0  
Month to date cooling degree days 14 14  
Year to date cooling degree days 311 220  
Growing Degree Days 4 (Base 50)    
Moisture  
Dew Point 44 °F    
Average Humidity 69    
Maximum Humidity 92    
Minimum Humidity 46    
Precipitation  
Precipitation 0.12 in 0.02 in 0.42 in (2001)
Month to date precipitation 0.42 0.34  
Year to date precipitation 5.42 6.07  
Sea Level Pressure  
Sea Level Pressure 29.90 in    
Wind  
Wind Speed 7 mph (South)    
Max Wind Speed 15 mph    
Max Gust Speed 21 mph    
Visibility 10 miles    
Events Rain    
T = Trace of Precipitation, MM = Missing Value Source: NWS Daily Summary

Daily Weather History Graph

Daily Weather History Graph

Search for Another Location

Airport:

Trip Planner

Search our weather history database for the weather conditions in past years. The results will help you decide how hot, cold, wet, or windy it might be!

Date:

Astronomy

Sep. 25, 2014 Rise Set
Actual Time 6:55 AM PDT 6:56 PM PDT
Civil Twilight 6:26 AM PDT 7:25 PM PDT
Nautical Twilight 5:52 AM PDT 7:58 PM PDT
Astronomical Twilight 5:18 AM PDT 8:33 PM PDT
Moon 8:22 AM PDT (9/25) 7:38 PM PDT (9/25)
Length of Visible Light 12h 58m
Length of Day
12h 00m
New Moon, 2% of the Moon is Illuminated
Sep 25
New Moon
Oct 1
First Quarter
Oct 8
Full
Oct 15
Last Quarter
Oct 23
New

Hourly Weather History & Observations

Time (PDT) Temp. Windchill Dew Point Humidity Pressure Visibility Wind Dir Wind Speed Gust Speed Precip Events Conditions
12:56 AM 52.0 °F - 46.9 °F 83% 29.92 in 10.0 mi SSW 6.9 mph - 0.00 in Rain Light Rain
1:56 AM 51.1 °F - 46.0 °F 83% 29.90 in 10.0 mi SE 5.8 mph - 0.01 in Rain Light Rain
2:56 AM 50.0 °F - 46.9 °F 89% 29.90 in 10.0 mi SE 9.2 mph - 0.02 in Rain Light Rain
3:56 AM 51.1 °F - 46.9 °F 86% 29.88 in 10.0 mi SE 11.5 mph - 0.04 in Rain Light Rain
4:56 AM 52.0 °F - 45.0 °F 77% 29.86 in 10.0 mi SE 8.1 mph - 0.01 in   Overcast
5:56 AM 52.0 °F - 45.0 °F 77% 29.86 in 10.0 mi SSW 8.1 mph - N/A   Overcast
6:56 AM 52.0 °F - 44.1 °F 74% 29.88 in 10.0 mi SSE 8.1 mph - 0.00 in   Overcast
7:56 AM 52.0 °F - 45.0 °F 77% 29.88 in 10.0 mi SSE 6.9 mph - 0.00 in Rain Light Rain
8:56 AM 53.1 °F - 44.1 °F 71% 29.89 in 10.0 mi SSE 9.2 mph - 0.00 in   Overcast
9:56 AM 54.0 °F - 44.1 °F 69% 29.88 in 10.0 mi ESE 5.8 mph - N/A   Overcast
10:56 AM 55.9 °F - 45.0 °F 67% 29.90 in 10.0 mi SW 4.6 mph - N/A   Overcast
11:56 AM 57.0 °F - 45.0 °F 64% 29.91 in 10.0 mi South 9.2 mph - N/A   Overcast
12:56 PM 59.0 °F - 44.1 °F 58% 29.89 in 10.0 mi SSW 6.9 mph - N/A   Overcast
1:56 PM 61.0 °F - 44.1 °F 54% 29.88 in 10.0 mi SW 8.1 mph - N/A   Mostly Cloudy
2:56 PM 59.0 °F - 42.1 °F 53% 29.89 in 10.0 mi SSW 6.9 mph - 0.00 in   Mostly Cloudy
3:56 PM 60.1 °F - 39.9 °F 47% 29.88 in 10.0 mi SW 5.8 mph - 0.00 in   Partly Cloudy
4:56 PM 62.1 °F - 42.1 °F 48% 29.87 in 10.0 mi SSE 4.6 mph - N/A   Partly Cloudy
5:56 PM 61.0 °F - 42.1 °F 50% 29.87 in 10.0 mi SSE 4.6 mph - N/A   Scattered Clouds
6:56 PM 55.9 °F - 44.1 °F 64% 29.89 in 10.0 mi SSE 3.5 mph - N/A   Partly Cloudy
7:56 PM 54.0 °F - 45.0 °F 72% 29.92 in 10.0 mi SW 4.6 mph - N/A   Scattered Clouds
8:56 PM 51.1 °F - 46.0 °F 83% 29.94 in 4.0 mi NNW 10.4 mph - 0.03 in Rain Rain
9:56 PM 46.9 °F - 44.1 °F 90% 29.95 in 10.0 mi Calm Calm - 0.01 in   Clear
10:56 PM 45.0 °F 41.8 °F 43.0 °F 93% 29.97 in 10.0 mi South 5.8 mph - N/A   Partly Cloudy
11:56 PM 45.0 °F 41.2 °F 42.1 °F 90% 29.97 in 10.0 mi South 6.9 mph - N/A   Partly Cloudy